This is the latest recevied weather packets stored in our database for station/object KY4LEX. If no packets are shown the sender has not sent any weather packets the latest 10 day(s).
| Time | Temp. | Humidity | Pressure | Rain* | Wind** | Luminosity | Snow |
|---|---|---|---|---|---|---|---|
| 1777942128 | 21.67° C | 50% | 1013.3 hPa | 0 mm | - | 0 W/m² | - |
| 1777941824 | 21.67° C | 52% | 1013.3 hPa | 0 mm | - | 0 W/m² | - |
| 1777941521 | 21.67° C | 53% | 1013.3 hPa | 0 mm | - | 1 W/m² | - |
| 1777941218 | 22.22° C | 50% | 1013.3 hPa | 0 mm | - | 2 W/m² | - |
| 1777940914 | 22.22° C | 48% | 1013.4 hPa | 0 mm | - | 3 W/m² | - |
| 1777940611 | 22.22° C | 47% | 1013.4 hPa | 0 mm | - | 4 W/m² | - |
| 1777940310 | 22.22° C | 46% | 1013.6 hPa | 0 mm | - | 7 W/m² | - |
| 1777940006 | 22.78° C | 47% | 1013.7 hPa | 0 mm | - | 10 W/m² | - |
| 1777939704 | 22.78° C | 46% | 1013.7 hPa | 0 mm | - | 12 W/m² | - |
| 1777939401 | 22.78° C | 46% | 1013.9 hPa | 0 mm | - | 15 W/m² | - |
| 1777939098 | 23.33° C | 46% | 1013.6 hPa | 0 mm | - | 17 W/m² | - |
| 1777938794 | 23.33° C | 45% | 1013.7 hPa | 0 mm | - | 19 W/m² | - |
| 1777938491 | 23.33° C | 46% | 1014.1 hPa | 0 mm | - | 23 W/m² | - |
| 1777938189 | 23.33° C | 44% | 1014 hPa | 0 mm | - | 26 W/m² | - |
| 1777937885 | 23.89° C | 45% | 1014.2 hPa | 0 mm | - | 32 W/m² | - |
| 1777937581 | 23.89° C | 43% | 1014.1 hPa | 0 mm | - | 36 W/m² | - |
| 1777937278 | 23.89° C | 43% | 1014.5 hPa | 0 mm | - | 37 W/m² | - |
| 1777936975 | 23.89° C | 45% | 1014.5 hPa | 0 mm | - | 40 W/m² | - |
| 1777936672 | 23.89° C | 43% | 1014.3 hPa | 0 mm | - | 43 W/m² | - |
| 1777936368 | 23.89° C | 43% | 1014.5 hPa | 0 mm | - | 45 W/m² | - |
| 1777936064 | 23.89° C | 45% | 1014.2 hPa | 0 mm | - | 49 W/m² | - |
| 1777935763 | 24.44° C | 44% | 1014.7 hPa | 0 mm | - | 57 W/m² | - |
| 1777935461 | 24.44° C | 42% | 1014.7 hPa | 0 mm | - | 58 W/m² | - |
| 1777935157 | 25° C | 42% | 1014.6 hPa | 0 mm | - | 64 W/m² | - |
| 1777934854 | 25° C | 41% | 1014.7 hPa | 0 mm | - | 100 W/m² | - |
* Rain latest hour (hover to see other rain measurements)
** Current wind speed in m/s (hover to see current wind gust speed)